GFSMW_sfc_rhum_102.txt.gz
RH
32 31 35 37 40 42 44 45 49 51 50 46 35 45 53 66 62 55 60 66 73 83 82 82 86 85 85 83 86 87 92 90 87 94 97 96 88 84 92 88 95 98 96
34 36 37 40 44 45 47 49 49 50 50 48 44 38 45 48 56 57 66 67 74 82 82 86 88 87 86 86 86 81 92 90 90 95 96 99 98 89 88 89 94 96 98
41 39 41 44 46 48 51 51 52 53 56 57 51 47 48 50 65 71 77 73 76 82 84 86 88 88 86 87 82 86 90 96 96 83 81 98 95 97 93 92 89 97 98
41 40 42 44 48 50 53 56 58 57 56 61 58 56 47 49 52 58 77 84 84 88 87 91 90 91 90 90 86 85 84 87 96 95 80 66 73 86 98 98 94 91 94
44 43 43 43 44 52 56 62 65 64 65 68 72 67 57 52 46 55 78 89 90 90 87 91 92 94 92 91 88 85 80 86 91 94 91 84 76 70 74 97 98 97 93
44 42 42 43 45 50 58 66 71 72 71 73 75 78 73 57 50 55 81 91 95 92 90 88 88 90 92 91 92 87 79 82 88 90 90 84 79 72 80 81 92 95 97
47 44 44 45 50 57 63 70 76 78 75 78 80 78 74 64 65 59 76 92 92 93 92 84 85 88 89 88 89 88 83 83 90 92 94 89 82 73 75 87 88 94 95
47 45 46 49 53 61 65 76 83 83 81 84 85 84 68 63 65 71 79 80 83 76 78 81 73 72 79 86 89 89 81 79 89 89 91 92 89 76 92 83 89 94 92
48 48 47 53 58 64 71 84 84 82 82 88 90 88 73 68 81 82 85 81 69 61 67 73 84 92 92 88 90 87 80 87 93 92 90 91 88 89 89 91 94 83 97
48 49 49 56 60 67 71 85 84 85 85 88 91 90 83 80 79 84 84 82 70 70 75 80 86 94 93 90 91 84 86 93 94 92 93 91 86 88 88 88 88 89 86
53 52 52 56 60 63 70 84 84 87 89 89 91 94 91 86 85 88 88 91 88 82 87 86 96 95 95 92 92 90 81 84 92 91 94 91 89 93 92 88 80 81 79
54 52 52 56 61 63 69 79 86 89 89 87 89 94 94 96 96 95 94 91 93 89 86 88 94 95 90 88 87 86 87 91 97 96 96 94 92 93 91 90 88 91 86
56 54 54 58 60 64 70 80 87 92 91 87 90 91 92 95 96 97 95 92 82 80 78 79 87 88 83 82 92 92 96 94 94 94 96 93 95 95 94 92 94 93 92
60 60 58 59 60 63 68 81 92 96 96 93 88 92 94 95 95 95 96 94 86 85 79 79 86 88 91 90 92 93 93 93 85 79 83 79 89 95 96 96 94 95 94
71 64 63 64 61 65 70 71 84 87 84 94 96 93 92 93 92 93 94 96 95 94 91 93 92 90 86 85 94 95 93 95 96 97 92 96 98 99 98 95 95 95 95
75 66 64 66 68 71 73 74 79 95 86 87 91 90 94 89 91 92 93 94 94 95 92 93 90 92 89 98 99 97 94 92 93 96 93 93 97 98 100 100 100 96 94
80 78 74 74 74 80 78 80 92 86 91 85 86 93 95 94 95 94 93 98 97 96 97 95 94 96 95 98 97 97 90 93 94 94 92 89 90 97 97 98 98 98 99
91 83 84 81 80 79 78 74 75 83 87 87 89 89 93 92 94 95 100 100 100 100 100 98 95 93 92 96 96 95 92 94 94 94 94 95 96 96 96 97 99 100 99
95 99 91 85 87 86 78 76 77 76 78 94 96 97 96 95 93 95 98 100 98 97 98 98 96 95 95 94 93 90 91 94 96 94 94 93 96 94 91 95 97 96 98
96 94 100 99 88 94 84 81 87 86 95 96 97 97 100 98 96 99 98 98 97 97 95 96 95 95 95 93 91 88 90 95 93 92 94 95 95 93 91 93 93 97 99
93 93 88 90 94 98 95 93 92 94 95 96 95 95 96 100 100 100 100 100 99 97 97 96 96 95 95 94 91 90 92 94 94 94 96 94 91 91 90 90 94 96 95
88 81 79 77 71 66 71 90 93 97 96 95 94 96 97 99 100 100 100 100 100 98 98 97 97 97 97 92 92 91 91 89 92 96 94 94 89 89 88 91 90 89 90
68 57 62 63 65 65 67 75 72 81 88 91 93 95 96 97 96 96 97 93 98 98 98 96 96 97 97 97 95 95 93 93 95 96 93 89 87 87 90 87 85 85 88
76 62 58 62 68 64 66 66 60 47 55 65 70 75 81 85 86 75 77 85 89 89 90 94 95 94 93 94 96 95 94 96 94 95 96 96 95 94 94 94 95 94 94
83 70 71 70 70 59 59 58 57 55 52 51 62 65 64 70 73 83 88 84 90 88 89 91 90 92 94 97 95 95 95 95 96 98 97 95 94 94 94 93 94 93 93
82 80 80 78 72 63 66 65 56 52 53 51 51 61 63 66 62 62 73 82 83 82 80 80 84 86 80 78 81 83 86 91 95 93 93 94 93 92 91 90 89 88 88

GFSMW_sfc_rhum_105.txt.gz
RH
22 24 29 31 34 35 37 40 44 46 43 42 42 38 34 38 42 45 49 56 59 72 75 71 75 74 79 74 86 86 85 90 82 91 93 86 77 82 76 78 78 85 94
23 28 30 32 38 40 43 44 44 46 45 43 44 44 43 36 37 42 51 54 65 76 80 77 73 76 81 75 85 84 89 89 88 92 91 97 96 91 76 75 80 87 97
29 30 32 35 38 41 47 47 48 50 51 52 49 47 47 47 48 49 50 51 60 70 81 80 77 82 81 84 88 82 85 87 93 84 80 96 95 94 87 81 83 87 92
31 31 33 36 38 40 45 48 51 52 51 54 57 63 56 47 33 40 44 54 59 71 80 81 80 85 82 86 83 79 82 76 90 91 73 64 61 70 96 91 84 88 89
35 35 35 35 34 40 46 51 54 54 55 58 65 71 72 58 47 42 44 54 66 74 76 82 84 89 87 88 86 84 80 74 82 87 91 74 72 66 68 90 92 93 89
36 35 34 35 36 41 49 54 57 57 60 67 71 77 80 75 63 47 47 51 68 82 84 87 87 86 86 91 92 91 81 75 75 78 82 79 80 76 71 74 81 86 94
38 36 36 38 41 47 53 59 62 64 66 74 76 80 83 82 77 64 55 56 77 88 91 91 92 85 85 78 73 82 86 81 79 80 81 81 73 69 64 76 79 93 94
38 38 38 42 44 49 55 65 68 69 71 79 82 82 84 83 75 68 58 59 67 76 87 91 91 87 82 74 82 84 84 83 85 83 79 80 77 71 72 75 80 92 98
39 41 40 44 47 52 60 71 68 67 75 83 86 87 87 89 80 71 63 67 70 70 89 91 90 91 88 86 87 89 87 85 84 81 84 87 84 82 84 84 88 88 97
38 41 41 45 48 54 58 69 69 74 79 83 86 87 88 89 83 67 67 66 70 72 74 84 89 84 79 77 81 90 84 87 82 80 80 79 84 84 85 84 92 96 94
41 41 42 44 48 52 57 67 72 76 83 86 86 88 90 90 91 77 68 66 67 67 70 76 82 82 81 85 84 79 90 86 83 83 83 88 84 86 90 91 86 90 93
42 42 43 45 50 55 58 62 74 78 81 84 86 88 88 89 92 94 90 74 73 75 70 77 73 74 81 83 92 92 91 88 82 80 91 89 81 86 83 89 94 93 90
45 46 45 48 52 56 60 63 74 80 80 83 88 88 89 90 92 93 94 95 83 90 89 77 74 75 81 86 91 91 89 88 79 76 83 90 87 95 94 92 93 91 94
52 52 50 51 54 57 60 64 79 85 88 84 90 94 93 92 93 92 94 92 96 94 92 84 80 80 80 79 80 87 92 87 85 89 90 88 92 92 91 94 95 92 94
56 56 57 58 58 61 63 64 72 80 88 88 92 97 96 90 93 94 96 93 95 92 94 92 92 91 88 88 88 90 95 95 93 95 88 95 96 97 99 96 94 96 97
63 61 60 62 66 67 67 67 71 76 84 92 92 87 88 89 92 94 95 95 92 94 92 95 95 93 88 99 100 97 95 96 97 98 94 91 95 96 99 100 100 100 97
70 73 68 69 72 75 69 73 71 72 80 94 96 92 95 95 96 93 94 98 96 94 98 97 94 96 96 98 99 97 92 95 95 94 94 88 88 94 94 97 98 98 98
80 81 78 76 80 83 74 69 66 72 82 90 96 96 97 98 98 96 94 97 98 100 99 96 97 96 93 97 96 94 92 94 95 95 95 96 94 94 93 95 99 100 99
96 100 85 86 91 94 77 72 74 74 79 94 96 98 98 98 97 96 94 95 95 96 97 97 96 98 97 99 95 90 91 93 95 93 93 93 93 93 91 94 98 97 98
97 92 100 100 96 99 83 80 85 84 94 96 98 98 98 100 100 100 100 100 98 97 95 95 96 96 97 99 94 88 90 95 93 92 93 93 95 92 90 91 93 96 99
94 96 86 96 98 94 97 93 93 95 95 92 93 93 94 97 100 100 100 100 100 100 97 97 97 96 95 96 94 91 93 93 92 93 95 95 91 92 92 91 94 97 94
88 84 90 83 66 60 65 85 92 100 99 95 92 93 94 96 95 98 100 100 100 100 100 99 97 97 97 95 94 93 93 91 92 96 94 94 88 88 90 92 91 90 90
79 60 59 60 57 56 57 65 68 67 81 86 93 94 91 91 91 90 91 91 94 92 96 95 96 96 98 98 96 96 94 94 96 96 94 91 88 88 91 90 90 90 91
70 57 54 54 57 53 53 50 48 42 46 58 63 67 75 78 78 75 78 82 90 89 89 92 93 95 94 95 96 96 96 97 98 98 97 97 97 96 97 95 95 95 94
76 62 61 57 56 49 52 48 47 43 43 47 52 56 63 68 75 78 78 80 90 86 90 93 90 93 94 96 94 94 96 97 98 99 98 96 96 96 97 96 96 97 97
77 75 73 70 63 57 60 58 53 49 51 50 50 58 54 55 54 62 79 79 77 75 76 77 81 86 76 73 74 74 80 88 92 92 94 95 95 94 93 94 94 93 93

GFSMW_sfc_rhum_108.txt.gz
RH
24 28 34 39 40 47 48 50 55 59 58 58 58 57 58 58 56 51 59 68 74 78 75 76 76 81 79 77 87 93 90 96 94 94 94 96 92 90 95 95 94 93 92
24 30 33 39 46 47 52 52 52 56 57 56 61 62 64 62 61 59 60 61 64 76 79 81 82 81 81 82 88 90 94 93 90 93 97 99 97 96 95 91 90 94 95
29 31 32 41 47 50 54 51 54 56 59 61 58 60 62 61 62 60 57 54 61 69 77 81 86 89 92 96 89 90 91 92 94 86 94 99 97 98 97 92 95 94 98
30 31 35 39 44 50 54 54 56 57 55 62 66 71 72 73 69 67 60 53 65 67 74 81 84 88 88 95 94 91 88 84 94 93 82 86 88 96 99 97 94 94 96
36 36 37 38 39 48 55 59 61 59 61 63 69 74 77 74 72 71 69 66 59 66 72 81 86 89 89 85 87 91 85 87 86 90 92 86 90 89 92 98 98 97 96
39 35 36 39 43 49 57 62 64 64 63 65 70 76 80 80 80 78 78 72 65 68 70 81 86 86 91 91 88 86 89 91 88 86 88 88 87 90 94 94 96 93 98
41 39 41 44 48 54 59 62 64 67 65 68 73 76 80 81 84 83 83 81 80 78 74 81 93 92 91 90 87 90 93 91 92 89 87 84 80 84 82 91 95 97 98
42 42 42 48 49 54 59 64 67 70 69 74 77 78 81 86 85 86 83 82 80 75 79 87 90 92 91 89 90 86 94 92 94 90 90 88 83 84 89 90 94 99 100
41 44 42 48 51 56 62 67 71 70 72 76 81 84 85 88 91 89 88 87 81 75 80 90 92 92 90 90 92 93 90 82 90 90 88 91 88 84 93 92 93 93 99
39 41 43 49 53 58 59 66 71 75 76 78 79 82 86 86 90 91 92 91 81 76 81 89 90 93 91 93 88 84 83 89 93 91 90 88 90 91 89 94 95 93 94
42 43 46 49 54 56 60 68 72 78 82 82 79 84 86 86 87 90 91 92 95 74 78 87 90 91 95 94 92 89 89 92 94 92 86 91 91 93 90 95 96 97 96
45 45 48 50 55 59 59 66 74 78 83 81 81 83 86 86 88 89 90 93 93 92 77 80 86 90 90 89 92 93 91 91 92 90 92 95 94 93 93 94 94 95 94
48 50 51 54 57 61 65 69 76 79 81 81 84 84 86 89 90 90 89 90 91 93 92 81 88 92 89 91 88 88 88 88 88 94 95 96 95 96 96 95 96 95 95
54 56 57 58 61 63 67 69 78 80 84 85 87 88 89 88 90 90 90 90 90 91 91 94 94 95 91 87 84 84 87 88 90 90 88 91 94 93 94 96 94 94 96
57 61 63 64 66 68 70 68 74 79 81 86 91 92 88 86 88 90 91 91 92 91 90 92 93 95 94 93 97 93 91 86 90 98 98 98 97 99 99 98 97 95 97
63 64 65 67 73 75 74 73 76 81 83 87 89 88 89 89 90 91 92 92 94 96 92 95 94 96 91 97 100 99 97 96 97 99 99 97 97 98 99 99 100 100 99
70 71 74 76 79 89 84 83 80 80 92 94 88 91 96 97 97 97 92 93 94 93 97 96 94 97 96 97 98 99 97 97 98 98 96 93 92 96 97 98 98 99 98
80 79 84 85 90 96 91 84 75 80 92 92 91 96 97 98 98 97 96 97 96 95 96 96 97 95 95 98 98 97 95 96 96 96 96 96 96 97 97 98 99 99 98
94 97 94 95 99 97 96 95 82 82 82 92 94 98 98 98 98 98 98 98 95 94 94 94 93 95 96 98 99 95 94 95 96 93 94 95 96 94 92 97 98 99 99
96 94 100 100 97 100 99 90 86 85 93 93 94 97 98 95 97 98 99 99 99 97 95 95 96 95 96 96 96 96 94 94 93 92 93 93 95 92 90 94 95 98 99
95 99 97 98 99 98 99 98 89 94 91 87 87 87 89 89 92 92 97 98 99 95 96 96 97 97 97 97 95 94 95 95 93 94 94 94 90 92 92 91 96 98 96
95 94 94 92 74 58 61 76 90 99 100 92 87 88 85 87 87 89 90 91 90 93 96 95 94 95 97 97 96 96 95 94 94 96 95 94 89 90 90 92 91 90 92
94 78 59 55 52 52 51 58 59 63 70 79 83 85 86 84 83 86 89 89 89 91 90 92 93 96 96 97 96 96 97 97 97 97 97 92 90 88 92 91 89 90 92
68 55 51 52 57 56 55 55 50 44 50 60 63 68 74 86 82 75 78 83 88 89 90 91 92 91 91 94 96 97 97 98 98 98 98 98 97 97 96 95 96 96 96
80 64 66 65 65 57 60 56 56 52 53 57 62 65 65 66 82 88 84 81 84 80 88 91 91 92 93 88 77 84 95 98 98 98 96 96 95 95 96 96 96 97 97
79 79 78 76 72 67 70 75 64 61 63 66 65 70 70 70 68 69 86 78 76 73 72 71 77 86 74 70 68 68 72 78 82 91 95 96 96 96 96 96 96 96 96

GFSMW_sfc_rhum_111.txt.gz
RH
41 45 48 49 54 57 58 61 67 71 69 73 74 71 74 71 68 64 63 66 86 89 88 83 85 86 86 80 90 93 92 98 95 97 98 98 94 94 96 93 95 94 93
42 46 50 54 60 64 64 65 66 69 68 70 72 78 78 79 73 69 66 64 65 79 87 89 88 87 91 90 89 92 98 98 94 97 97 99 97 97 97 96 97 96 97
42 47 48 58 63 67 70 68 68 66 67 69 70 72 73 73 78 75 74 70 68 69 73 84 88 90 93 89 96 98 96 99 99 94 97 99 96 98 98 99 96 97 98
43 45 48 56 62 69 68 69 68 68 62 70 76 81 84 86 80 78 74 74 71 74 74 75 78 88 93 94 96 95 92 92 93 99 91 91 93 96 99 98 99 96 97
45 48 52 54 58 66 74 72 68 68 68 71 76 80 83 80 77 78 79 78 77 76 75 78 79 79 95 94 94 93 89 86 91 89 89 91 97 93 97 98 100 98 95
47 48 48 51 61 68 76 74 70 68 68 71 73 80 82 79 81 80 82 80 81 84 82 78 84 80 79 92 93 89 89 92 86 85 83 79 87 89 97 97 98 97 99
52 53 54 57 61 71 74 65 71 73 70 72 71 76 82 79 83 83 84 85 88 89 88 84 87 89 80 81 91 92 92 93 93 93 91 88 84 87 86 94 99 98 99
48 54 56 61 64 65 71 75 75 77 77 76 77 74 79 82 82 84 83 85 87 86 84 87 85 91 95 90 90 91 92 95 93 93 91 91 87 86 91 86 96 100 99
50 53 58 61 63 64 71 75 76 80 80 80 82 79 80 84 87 86 86 87 88 86 89 89 85 82 87 87 88 82 94 91 91 91 95 93 92 91 92 92 93 93 98
52 54 58 61 63 65 70 76 76 77 80 81 81 81 83 84 86 88 89 88 88 90 93 91 88 85 79 80 83 87 94 94 94 89 96 96 94 92 93 95 97 92 95
56 57 60 62 65 66 68 74 78 80 83 82 82 84 85 85 85 88 88 89 90 89 91 93 90 84 82 79 87 93 92 93 92 94 91 86 86 96 96 95 96 96 93
58 59 61 63 68 70 70 71 77 81 82 81 82 85 84 84 86 88 87 88 89 88 89 92 96 85 76 75 94 94 90 89 94 90 87 84 94 97 97 96 97 97 96
62 65 66 69 72 71 71 73 78 82 82 80 84 86 86 86 87 87 87 86 88 87 86 89 92 94 87 84 92 91 91 90 91 94 94 96 98 98 98 97 96 97 96
65 67 70 71 72 71 74 75 82 83 84 84 86 89 90 89 87 86 86 86 86 88 87 88 90 92 94 97 95 96 96 96 95 96 94 90 91 89 95 96 96 96 98
67 68 69 73 75 75 79 76 81 83 83 86 90 92 90 88 86 86 86 86 87 86 86 88 88 91 93 89 95 96 96 96 98 99 98 99 99 100 99 98 97 96 96
71 70 72 73 79 81 86 85 88 85 84 89 96 94 90 89 91 86 86 86 88 87 87 90 90 92 89 96 96 98 98 97 99 99 98 98 98 99 99 99 99 100 97
75 78 84 87 88 95 95 95 97 92 90 94 94 96 92 97 97 90 87 90 94 89 90 90 91 93 95 96 96 98 96 98 98 99 98 96 96 99 98 99 99 99 98
87 87 94 94 96 97 96 96 96 94 93 92 93 96 91 92 96 94 97 97 94 96 96 94 93 93 94 97 98 99 95 94 96 98 97 97 98 99 98 98 99 99 99
95 100 97 98 99 98 99 99 96 90 85 92 94 96 95 94 93 95 97 98 93 95 96 97 94 93 95 95 94 93 96 94 94 93 95 96 97 98 96 98 99 99 99
98 98 99 98 97 99 99 98 97 97 96 90 85 86 86 89 92 94 97 97 97 97 95 95 96 94 96 97 94 95 94 93 93 94 92 95 97 94 92 96 97 98 100
98 97 97 98 98 97 94 95 96 95 95 91 87 84 83 84 86 88 90 91 90 89 91 93 93 94 96 97 97 94 95 95 93 93 95 95 94 92 92 92 95 98 97
97 96 96 96 80 60 63 76 85 89 86 91 92 89 86 86 85 86 85 88 90 89 89 90 91 90 92 93 94 96 96 96 96 97 97 97 92 90 91 92 91 90 92
97 81 66 61 62 61 62 71 67 72 72 76 81 92 89 88 86 87 87 82 85 89 90 90 91 92 90 90 84 93 97 97 97 98 97 97 96 94 94 92 89 91 93
78 65 63 66 71 71 75 72 66 58 63 70 74 74 78 91 86 82 81 84 85 86 88 91 92 91 90 88 88 91 93 92 95 96 96 97 96 96 96 96 96 96 95
88 80 81 81 82 76 81 81 82 70 70 74 73 76 76 79 88 93 94 91 86 79 89 93 89 92 93 86 74 79 88 90 89 89 90 93 94 95 96 96 96 97 97
91 92 91 89 86 81 84 86 83 82 76 80 80 80 82 84 82 82 95 86 75 68 64 71 84 91 71 74 68 68 69 72 74 84 90 93 93 94 95 96 96 96 96

GFSMW_sfc_rhum_114.txt.gz
RH
55 58 59 60 62 65 67 67 70 73 71 76 78 77 80 77 78 73 72 75 83 82 77 88 95 95 96 87 96 96 97 98 96 99 99 99 97 98 98 97 97 96 94
54 60 65 67 70 71 70 70 70 71 72 74 80 87 80 88 77 79 75 75 78 82 80 86 87 92 95 96 97 93 92 95 98 95 96 99 99 97 97 97 97 96 95
58 62 68 75 74 75 74 73 72 72 72 76 75 77 79 81 83 79 79 77 75 78 83 84 86 87 91 94 94 96 91 84 99 98 99 100 98 99 96 99 98 97 97
57 61 68 75 75 77 73 72 68 70 69 74 79 85 88 89 81 82 79 78 77 80 83 86 87 88 89 91 93 97 96 95 94 99 98 96 98 98 99 98 98 98 98
71 64 67 72 72 73 76 70 71 70 70 74 78 84 86 84 81 78 78 77 78 80 84 87 89 89 86 86 91 98 98 92 94 93 95 91 95 96 96 98 99 98 94
64 61 62 66 72 72 71 70 72 74 72 74 79 76 78 81 83 80 82 81 80 80 80 81 90 90 89 89 90 96 94 94 90 87 81 84 89 88 96 98 96 89 94
69 66 68 71 73 74 71 68 76 77 78 80 81 75 75 78 83 82 84 84 87 88 88 87 89 91 90 88 88 97 96 94 93 89 85 81 72 80 84 95 98 98 98
70 67 68 68 69 72 73 75 76 81 78 80 80 76 76 81 81 82 83 84 86 85 85 88 88 90 90 89 88 92 96 95 95 94 92 83 80 83 88 86 97 100 99
74 74 73 70 68 72 78 78 79 80 81 84 84 81 81 84 86 84 84 84 84 79 84 88 90 90 92 91 88 94 95 95 92 91 88 86 88 92 90 88 88 87 98
82 76 73 70 70 71 73 77 78 82 80 82 81 80 81 83 84 85 87 86 86 87 88 88 88 90 91 93 90 89 89 91 90 90 89 88 88 94 94 93 93 92 94
66 69 73 72 72 70 73 78 80 84 83 80 81 81 81 81 83 85 85 86 87 86 87 86 89 90 92 94 92 86 88 92 92 95 94 89 87 94 96 96 95 92 92
69 69 70 71 72 72 72 76 84 86 86 81 80 81 79 79 82 84 84 85 86 84 85 85 86 87 88 91 94 90 84 94 95 93 94 89 91 88 94 97 96 96 93
70 72 70 74 72 75 76 80 86 87 85 82 80 84 83 82 82 82 83 82 83 83 83 84 86 87 88 88 93 95 93 93 92 90 93 88 88 92 95 97 97 96 94
69 69 73 69 74 77 79 82 88 86 86 83 85 89 84 85 82 83 82 83 82 83 83 84 85 88 87 87 90 91 97 95 91 90 91 91 86 87 93 93 91 90 93
71 70 74 73 78 78 83 82 84 85 83 86 89 92 90 86 86 89 90 84 83 82 83 85 85 89 88 89 94 94 97 98 93 99 99 98 98 100 96 90 90 93 95
74 75 75 74 77 78 81 80 82 86 83 84 90 86 86 86 91 92 91 89 86 86 86 87 88 90 86 96 94 93 94 96 96 99 99 99 99 100 100 100 100 98 97
80 84 86 86 89 94 95 92 85 85 87 88 88 88 91 93 94 94 91 95 96 90 91 93 94 91 91 93 96 94 93 93 95 97 97 97 97 99 98 99 99 99 99
88 88 92 94 97 99 97 93 90 90 84 87 89 88 88 93 95 94 95 95 97 97 96 96 96 96 97 97 92 94 97 95 96 97 96 96 97 98 99 99 99 100 100
96 98 97 97 96 92 96 96 94 94 86 87 86 87 83 87 89 93 94 92 92 94 96 96 96 96 97 98 97 92 94 95 97 97 95 95 96 99 98 99 100 99 99
96 95 99 97 94 96 95 96 98 90 94 90 87 85 85 86 88 87 92 92 89 90 89 90 90 89 96 97 97 96 96 95 95 95 96 96 96 93 94 96 98 97 100
96 95 94 96 97 95 92 87 84 88 90 93 88 86 87 86 88 86 85 89 90 88 89 89 88 88 88 91 91 95 95 97 96 95 96 97 92 92 93 93 96 98 97
94 92 94 92 80 72 74 85 87 87 84 86 89 92 90 89 87 89 87 87 88 88 89 89 89 89 88 81 86 86 88 91 95 97 97 97 95 95 93 94 93 92 95
96 73 70 72 74 78 84 86 80 75 78 82 87 89 94 92 89 90 90 87 87 89 89 89 90 91 89 88 80 83 83 87 95 94 93 93 93 93 95 96 95 95 94
84 73 71 77 84 81 80 83 83 68 72 74 78 80 84 90 91 87 84 79 81 88 89 91 91 88 89 86 84 87 88 86 88 88 88 87 88 93 95 95 95 97 97
93 84 81 84 87 80 82 84 82 76 75 79 77 82 82 87 89 94 96 78 79 80 92 95 91 91 93 92 74 76 84 87 86 86 86 90 90 92 92 93 96 96 96
92 90 88 84 84 80 82 83 82 82 74 76 83 83 82 82 80 81 84 79 65 63 72 73 80 84 71 71 73 73 71 73 76 85 92 93 93 94 94 94 93 93 93

GFSMW_sfc_rhum_117.txt.gz
RH
70 69 70 74 75 74 72 74 76 78 77 82 90 94 89 88 80 82 77 78 86 86 83 86 90 91 96 97 98 95 90 94 98 100 100 99 99 99 98 97 97 96 94
73 72 75 78 78 79 76 75 77 78 79 80 88 88 91 92 84 82 78 80 79 85 83 91 90 92 93 89 98 98 97 98 98 89 97 98 97 100 99 99 99 98 97
75 76 72 75 77 78 76 74 76 76 78 79 80 84 83 84 85 81 82 79 78 81 86 89 93 95 95 94 93 97 97 96 99 99 94 98 99 96 99 98 97 99 98
72 72 77 78 78 73 70 71 72 75 72 74 82 93 97 91 89 86 81 78 78 82 85 88 92 95 94 95 94 93 97 97 98 98 98 95 96 97 99 99 100 99 99
82 78 83 77 72 76 74 76 73 75 78 80 81 82 82 79 77 77 80 80 78 78 81 84 83 85 89 92 95 92 89 96 94 96 100 98 99 97 96 97 97 98 94
76 75 78 79 80 72 69 76 75 75 75 77 79 82 79 81 82 81 84 81 80 82 84 83 87 89 91 92 92 92 94 92 97 93 90 91 93 97 97 92 81 81 86
93 89 75 75 79 79 76 71 78 81 80 82 81 76 78 79 82 84 84 86 86 86 86 86 89 89 90 90 92 94 93 90 96 95 92 85 80 85 84 86 84 90 96
97 96 93 77 72 73 76 78 77 82 83 83 80 77 78 81 81 81 82 84 84 84 84 86 87 88 88 90 92 96 93 90 96 94 93 89 85 84 82 83 85 96 99
99 100 99 90 77 74 76 79 80 81 81 82 83 81 81 84 85 82 82 82 82 79 83 85 87 86 88 90 92 96 95 88 93 94 94 93 90 88 85 84 81 81 94
98 94 97 93 86 80 78 78 81 85 81 81 82 82 82 82 82 84 85 84 83 84 85 85 86 87 86 88 91 94 94 92 92 94 92 93 91 90 87 88 87 84 80
92 89 89 83 80 82 84 85 86 83 81 82 81 84 85 82 78 83 84 85 85 84 84 83 85 84 85 86 90 93 94 94 90 93 94 93 87 89 92 93 90 91 91
89 88 85 78 74 76 79 84 86 83 82 81 82 84 82 82 82 81 82 83 83 82 82 82 83 84 85 86 88 91 93 91 93 91 94 89 87 86 88 93 92 91 91
70 70 70 72 77 78 83 83 81 82 83 80 83 86 86 83 84 80 79 82 82 82 81 82 84 86 87 86 88 88 90 94 92 89 92 88 92 92 92 92 92 94 94
70 70 73 74 74 77 79 80 84 81 84 85 87 89 88 88 87 84 83 82 80 81 81 82 82 86 84 85 88 89 92 94 94 96 96 92 92 91 90 93 94 97 97
72 74 76 80 79 80 80 80 81 86 84 87 89 91 88 83 84 84 85 85 85 81 79 82 82 85 84 85 91 92 90 92 92 92 94 97 95 95 91 93 96 97 98
74 76 75 80 84 86 89 88 91 93 90 89 91 85 86 84 88 90 89 88 87 85 84 86 85 87 86 93 91 93 92 90 91 93 92 92 93 99 100 100 100 95 91
79 76 80 85 88 94 95 96 96 80 79 82 81 81 86 88 90 88 87 90 92 90 91 90 90 90 95 97 94 92 93 94 95 96 95 91 91 97 99 99 99 99 99
85 78 88 80 87 88 97 95 96 91 82 83 86 82 82 85 85 89 92 92 91 93 93 92 91 90 92 97 97 96 96 95 95 95 95 99 98 99 97 98 99 99 99
99 99 94 94 97 97 96 98 97 97 82 87 89 89 85 89 87 90 92 92 92 92 92 90 90 90 92 94 97 94 96 96 97 96 95 95 96 97 96 94 99 98 97
97 97 98 98 95 97 95 96 95 90 95 91 90 88 87 89 92 92 93 92 92 92 91 90 89 83 89 84 88 92 95 96 96 95 97 96 96 95 96 95 95 96 98
98 96 96 97 98 94 91 93 91 95 91 90 88 88 89 87 91 91 90 91 92 89 89 89 90 88 84 84 81 81 92 95 92 93 95 96 96 96 93 92 96 98 97
96 95 95 96 87 86 83 90 93 93 90 87 89 93 92 91 90 89 86 88 89 88 89 88 88 89 89 76 76 78 81 84 94 95 94 94 91 94 94 95 96 93 95
92 79 81 82 83 82 83 90 86 78 80 84 91 93 94 93 94 89 86 89 88 90 90 88 90 90 89 89 77 76 77 82 92 89 84 85 86 86 91 94 94 96 96
91 78 80 84 85 80 78 80 80 75 76 79 81 83 88 89 91 81 74 81 88 88 90 90 91 88 87 89 87 86 86 85 87 86 87 84 82 82 87 89 90 94 96
94 82 83 83 84 78 80 83 80 76 70 77 78 80 79 82 86 89 77 74 80 74 85 93 88 89 90 85 76 79 85 86 85 85 85 88 89 90 90 89 89 91 91
88 89 87 85 81 79 82 84 82 74 73 75 73 81 81 84 81 82 79 70 65 65 64 63 70 82 67 65 69 73 74 75 76 85 91 93 92 93 92 92 91 90 90

GFSMW_sfc_rhum_123.txt.gz
RH
63 58 61 60 58 60 59 62 68 71 68 64 65 62 63 63 61 61 67 69 72 76 72 66 71 74 75 74 75 80 96 98 97 98 96 93 94 96 95 94 93 90 89
66 62 62 61 63 64 65 64 66 68 69 65 66 66 67 63 65 63 67 67 71 75 70 77 77 80 80 79 77 76 80 96 95 96 95 98 93 88 90 92 93 88 88
79 73 68 68 69 70 69 69 72 71 73 69 60 61 62 61 62 63 64 66 70 72 78 78 79 80 84 87 87 86 80 82 94 90 94 98 94 74 74 78 81 86 90
80 77 75 71 70 71 69 66 70 74 75 75 71 71 75 78 71 69 66 67 70 73 76 78 81 84 86 88 88 84 87 85 83 90 92 79 89 93 96 86 82 80 88
91 87 80 78 70 69 70 77 69 73 77 79 78 79 78 75 71 69 72 72 71 71 75 78 81 83 84 87 90 90 90 89 87 78 91 96 91 88 96 90 91 86 76
85 80 79 78 81 79 73 68 72 73 76 78 80 87 85 80 78 76 76 75 71 72 73 76 79 81 84 87 88 89 90 93 92 88 78 87 80 81 85 91 80 81 78
87 87 88 83 82 82 80 82 82 82 77 74 74 77 79 78 78 78 78 79 75 76 76 77 81 82 83 83 85 88 89 91 94 92 90 82 81 73 75 71 72 68 59
91 91 85 83 83 80 77 75 75 75 75 78 80 78 75 77 76 75 76 76 77 75 74 77 78 80 80 82 83 87 91 92 95 94 93 90 78 77 77 83 86 82 71
88 87 84 80 79 77 78 80 78 75 75 76 76 74 74 75 78 77 75 75 74 71 76 76 79 79 80 81 83 86 86 90 92 93 94 93 88 81 82 76 81 88 85
84 80 75 76 75 73 76 77 76 78 78 76 77 77 76 76 76 74 78 77 75 76 76 78 78 79 79 80 82 85 84 87 90 89 92 92 91 85 85 86 81 86 85
79 73 70 68 70 72 76 80 79 80 82 77 77 79 80 78 77 77 77 78 76 76 77 79 81 80 82 81 84 86 84 88 89 90 91 93 90 92 88 89 90 91 90
70 65 64 64 67 71 73 75 79 81 82 78 79 80 78 77 76 78 76 77 77 76 78 79 82 80 81 81 83 86 84 88 89 90 91 91 86 90 87 88 91 93 91
64 62 63 67 68 73 75 76 80 82 79 76 79 80 78 78 77 74 74 73 74 74 75 79 85 85 86 82 80 78 81 83 85 86 89 89 89 92 94 95 89 88 87
64 64 68 69 69 70 75 77 81 76 73 70 72 77 75 75 74 71 71 73 73 74 75 78 82 89 84 81 80 77 78 79 79 83 84 86 89 92 94 92 94 92 92
67 67 70 70 72 71 71 70 72 68 65 67 71 74 69 68 69 71 70 70 72 72 72 75 78 85 84 86 85 79 77 77 78 80 77 82 87 88 91 93 95 95 95
68 70 71 69 74 71 72 73 75 69 64 67 68 66 67 66 72 70 70 69 70 70 70 73 74 81 72 80 82 80 80 78 79 81 82 76 83 86 86 92 94 95 96
69 74 77 78 79 81 73 77 75 64 65 69 68 70 76 78 80 74 73 78 80 79 81 79 78 80 75 73 79 80 82 83 86 88 87 83 80 88 85 83 87 91 91
76 80 83 82 82 85 83 82 69 67 70 72 74 72 75 80 81 82 86 87 85 88 88 88 83 83 82 70 73 80 91 93 90 90 92 92 93 92 89 86 88 91 93
88 92 86 86 92 93 85 82 80 73 66 78 80 78 79 85 85 92 89 87 86 86 88 87 87 87 87 70 70 81 86 91 90 89 89 88 94 87 90 91 94 96 94
89 90 96 94 92 93 84 85 86 78 85 82 80 75 73 84 91 90 89 86 83 85 79 83 86 81 87 70 70 78 82 88 86 85 89 80 82 80 84 93 94 93 96
91 89 88 96 96 88 89 91 88 92 85 80 80 77 73 75 81 83 85 87 84 83 85 82 84 85 82 82 70 71 85 88 82 86 89 88 77 78 79 82 94 96 96
90 85 90 90 80 69 68 87 92 88 85 83 83 86 78 75 76 83 83 82 83 82 84 83 84 86 86 71 72 70 71 76 86 88 86 85 75 76 78 82 79 80 87
89 78 76 72 69 67 64 70 74 71 74 77 88 81 77 80 73 76 81 74 79 78 77 77 82 84 85 85 70 71 69 72 84 83 78 73 73 75 81 77 79 85 89
79 70 66 68 72 67 68 66 62 56 57 60 62 65 65 65 65 56 57 62 69 73 74 78 80 79 78 81 79 80 79 72 77 75 78 76 73 74 79 82 84 87 90
84 68 66 68 72 65 66 65 60 50 53 57 58 61 60 60 61 70 66 62 72 65 71 77 74 82 85 81 70 73 80 82 78 76 79 84 85 84 83 82 81 86 87
82 79 76 71 69 62 67 67 59 53 53 56 60 65 61 62 57 54 61 70 66 64 62 62 67 74 66 64 63 64 66 66 65 73 84 88 87 85 79 80 78 79 82

GFSMW_sfc_rhum_126.txt.gz
RH
49 45 48 47 46 49 50 54 60 66 65 56 60 60 61 51 48 46 56 58 60 66 62 54 54 55 55 57 63 62 68 75 83 97 98 96 93 96 99 98 91 80 67
54 50 47 47 50 50 51 54 60 65 64 60 62 57 60 49 49 49 52 56 60 65 63 74 72 74 71 72 68 66 61 58 76 95 98 98 97 90 87 86 82 84 71
59 54 52 51 48 51 52 49 52 60 66 67 61 58 52 50 51 50 50 56 60 66 73 77 78 81 81 81 79 79 82 65 56 78 77 90 88 61 68 78 77 77 68
57 59 55 61 56 56 57 54 58 53 56 62 61 64 52 50 54 51 54 56 61 68 74 76 74 78 79 83 86 80 87 85 80 62 88 73 56 61 59 59 66 66 66
70 66 67 66 64 63 63 62 57 58 61 63 69 67 65 58 52 52 60 60 62 63 68 72 73 76 76 81 85 87 89 90 90 80 68 72 72 76 74 58 58 57 54
68 70 69 67 65 59 57 59 60 59 62 68 67 70 72 75 68 65 62 59 62 64 67 68 70 74 76 80 82 85 86 88 89 90 84 78 79 58 66 66 55 50 50
74 74 69 63 62 63 62 59 58 57 60 66 70 70 73 71 72 77 75 73 72 71 69 71 74 74 77 78 79 82 83 85 91 89 88 85 81 74 70 73 56 48 43
80 73 69 65 65 61 63 63 60 60 61 65 68 65 67 67 69 72 75 80 76 72 70 72 73 75 75 76 78 80 81 81 84 89 91 91 87 83 75 64 72 69 53
72 74 69 67 66 59 69 70 64 61 63 66 68 69 71 72 72 69 69 74 75 68 71 73 76 75 76 76 78 79 80 80 83 85 88 90 87 89 86 84 67 75 73
75 66 57 59 61 63 66 70 67 70 67 69 68 67 70 70 70 66 71 71 70 71 74 76 76 75 75 76 78 81 80 83 86 85 88 89 88 91 90 89 82 70 73
65 59 52 51 57 60 64 69 72 72 73 71 70 70 71 70 68 70 71 70 70 71 73 75 76 75 76 75 77 78 78 82 84 85 86 87 86 90 92 93 90 79 84
60 50 47 49 56 61 62 64 70 71 71 69 71 73 71 68 67 69 69 70 70 69 69 70 73 70 73 75 77 78 77 80 83 84 85 85 78 88 88 92 92 94 86
52 46 47 51 56 61 63 65 68 67 64 62 65 65 65 65 65 64 65 66 65 66 68 68 73 71 73 74 74 75 77 78 80 83 83 86 86 90 91 91 91 92 89
52 46 49 56 60 62 63 61 65 61 58 56 57 61 60 59 57 56 58 61 59 60 62 65 66 67 67 71 73 70 73 74 78 83 81 84 88 90 91 90 93 89 91
53 51 52 59 61 64 61 60 61 58 57 57 61 63 57 55 57 59 58 58 58 54 53 55 57 58 58 65 76 69 70 72 75 78 75 81 85 85 84 88 93 92 94
54 53 53 61 62 63 60 61 58 53 50 54 56 57 58 55 61 60 62 59 58 59 59 61 59 58 46 71 77 74 71 72 75 77 76 74 81 83 85 85 84 90 96
64 57 62 64 68 66 63 63 56 49 50 53 55 59 67 68 71 63 62 67 69 65 73 68 66 68 64 70 73 73 76 77 81 84 82 74 71 81 79 84 90 86 88
62 65 70 68 68 69 72 61 51 52 54 58 63 62 65 74 74 76 80 82 86 86 86 82 81 75 74 68 70 70 82 92 86 88 88 90 89 84 80 76 84 96 95
80 96 72 74 81 78 69 66 60 56 52 68 71 74 74 80 79 80 81 84 84 85 83 82 79 80 80 67 67 74 86 96 87 86 86 83 87 77 79 86 91 96 99
87 85 94 92 89 89 74 73 73 65 80 74 72 63 71 79 81 83 81 84 86 85 78 82 79 73 79 68 66 76 74 81 75 77 81 71 76 72 75 88 90 93 95
83 80 84 92 91 89 88 85 80 83 76 70 71 70 63 75 78 80 84 82 81 81 79 79 79 76 75 76 67 66 78 79 73 73 78 78 69 70 72 75 88 89 87
84 78 84 82 64 56 61 82 85 84 79 73 75 78 75 71 72 77 80 78 78 77 77 77 78 77 77 68 68 66 68 73 77 80 78 78 67 66 69 75 73 75 79
79 71 67 59 50 44 44 54 61 64 69 72 78 77 72 75 66 70 74 68 74 71 71 70 74 75 75 76 64 64 65 66 78 77 72 65 63 64 68 66 68 74 85
67 54 53 53 53 48 46 46 46 42 43 46 48 49 52 53 50 44 47 53 61 65 66 70 72 72 70 73 73 72 72 67 72 68 72 68 66 64 69 73 76 80 83
73 54 53 54 54 45 47 44 40 37 39 41 43 44 44 46 50 58 59 53 67 60 65 69 68 77 79 78 69 72 76 75 70 69 72 77 78 79 78 76 76 74 78
70 63 61 56 50 47 49 46 41 38 38 39 42 47 43 43 39 38 52 64 62 59 60 59 63 70 63 62 61 60 61 59 57 66 74 77 76 72 68 70 69 70 68

GFSMW_sfc_rhum_132.txt.gz
RH
38 38 42 45 46 51 50 51 56 61 58 58 60 59 63 69 65 61 64 64 68 71 70 72 72 73 76 78 78 82 83 82 76 84 85 94 95 96 95 94 93 97 98
38 41 43 48 53 54 56 53 53 56 58 57 57 60 63 63 63 65 67 66 65 70 66 73 73 70 73 73 74 79 78 83 82 90 90 94 90 96 96 97 98 98 94
39 42 46 53 54 56 59 54 55 56 61 63 57 57 58 60 61 61 63 64 66 68 72 72 69 71 74 77 78 76 80 83 76 81 88 95 94 84 79 90 92 95 93
40 44 49 53 53 56 55 53 52 55 57 63 64 67 63 64 63 62 64 63 66 68 71 71 71 69 71 74 75 74 78 86 85 79 70 82 84 88 85 83 82 92 92
45 50 53 51 50 54 58 58 54 54 57 60 64 67 70 68 64 66 69 69 69 68 70 73 72 72 71 71 78 78 82 82 89 88 88 86 80 78 85 88 79 78 84
51 52 52 50 50 52 57 57 54 54 58 59 62 68 68 66 65 66 68 70 68 72 73 73 75 74 74 75 73 77 76 82 85 86 88 89 93 92 92 89 81 85 72
54 53 51 49 51 54 59 55 53 55 60 62 61 65 66 66 65 70 70 71 74 70 76 75 80 77 75 75 71 75 78 82 87 87 88 86 85 84 86 90 83 86 76
61 57 52 49 47 53 59 59 55 58 62 64 63 65 64 66 68 68 70 70 73 70 72 76 75 75 75 76 77 80 80 78 85 85 85 86 84 84 86 90 95 95 86
65 63 58 52 48 53 64 66 61 59 62 64 65 66 68 68 70 70 69 73 73 66 72 73 77 75 75 75 77 80 79 78 80 83 84 85 83 82 82 85 90 97 97
64 60 53 50 50 56 63 66 64 64 64 66 66 66 65 64 68 69 73 73 72 70 72 73 73 73 74 76 76 77 77 80 81 80 83 85 85 84 86 88 89 90 96
62 57 50 48 51 54 60 68 66 66 66 67 66 69 68 65 65 68 69 71 72 70 70 70 71 73 75 76 79 77 79 81 82 83 84 86 85 88 89 90 91 90 92
56 51 48 45 51 53 56 64 66 65 64 64 62 64 60 59 62 66 64 70 66 66 64 63 63 66 72 75 82 77 77 81 84 87 83 85 80 88 88 90 91 91 90
53 49 44 45 48 54 57 60 62 58 57 56 60 61 61 60 61 61 62 60 59 58 60 59 60 62 69 73 76 71 73 74 76 79 82 83 84 90 87 88 89 89 84
53 49 45 46 49 53 56 60 64 61 56 57 59 62 62 60 61 60 61 62 58 57 57 59 60 60 64 70 71 66 68 68 68 75 74 77 82 88 91 83 86 84 87
52 49 46 49 52 54 56 54 59 60 56 59 63 67 61 60 62 65 64 64 64 59 59 60 60 59 59 66 77 65 65 66 68 70 64 69 73 75 77 86 92 88 88
51 46 44 47 52 53 54 54 53 53 52 53 58 58 60 59 65 66 69 66 65 65 66 68 64 66 51 72 76 69 68 69 73 75 75 65 73 74 70 72 80 88 94
51 48 48 50 52 54 56 59 55 48 49 54 55 60 65 70 74 70 72 76 77 74 80 78 75 74 67 69 75 72 79 80 83 81 80 70 62 72 74 74 74 77 76
53 52 56 61 64 63 61 58 48 50 53 57 59 59 64 72 76 80 86 87 88 90 90 86 84 81 69 66 72 75 82 84 84 85 79 83 81 72 73 77 81 86 87
70 82 73 84 86 74 64 56 54 54 53 64 69 70 77 84 84 91 91 90 88 91 90 89 87 85 83 65 67 78 86 86 85 82 81 77 82 66 70 81 85 85 87
88 93 96 94 93 90 70 62 60 60 74 67 73 71 78 89 92 91 92 92 90 92 88 89 86 74 84 65 65 75 87 86 84 84 84 67 69 64 66 82 85 86 89
96 95 94 98 100 93 93 86 78 84 72 66 67 69 70 83 84 88 92 92 93 92 89 89 87 85 77 78 64 64 83 90 86 85 86 85 62 63 64 67 79 78 82
95 89 94 97 91 71 70 87 91 86 72 70 77 85 78 71 77 90 91 90 91 90 89 88 89 87 85 67 67 64 64 68 89 91 88 82 61 62 62 68 65 66 78
92 91 91 84 69 60 58 66 70 71 73 77 89 85 76 77 70 75 83 81 86 85 83 84 87 88 86 87 66 64 63 66 88 85 68 61 60 61 73 61 64 76 80
84 73 67 63 58 50 48 54 53 52 55 62 63 62 62 61 59 59 63 70 78 79 83 86 87 86 85 85 86 86 85 81 82 89 88 85 73 82 83 79 77 80 81
78 67 60 52 50 42 44 44 46 42 46 47 49 54 58 59 64 72 69 68 78 70 80 88 87 89 89 83 66 71 88 82 82 88 90 89 86 83 81 80 78 81 80
78 68 60 55 47 42 42 39 36 37 42 45 49 54 52 59 61 62 71 60 63 60 60 59 69 87 62 56 57 60 56 53 56 81 84 84 83 80 78 80 80 78 78

GFSMW_sfc_rhum_135.txt.gz
RH
53 54 58 63 66 69 68 68 72 74 71 73 76 80 78 81 79 77 72 72 77 74 72 71 74 72 77 75 78 78 81 89 84 98 95 94 91 95 98 98 98 96 96
53 54 65 70 70 71 69 69 68 74 72 72 71 79 82 76 78 77 75 75 76 76 71 78 73 71 76 74 76 74 78 75 79 92 97 98 92 91 90 94 98 98 98
55 59 62 68 74 76 74 68 71 73 77 74 72 69 73 68 71 72 74 73 73 76 79 78 77 76 75 79 76 78 78 82 73 75 90 97 99 86 87 78 90 91 98
57 60 66 69 74 78 72 70 68 69 69 76 77 82 84 83 83 78 75 74 74 75 79 79 77 74 76 76 76 72 79 82 83 77 72 79 83 93 92 88 78 87 81
64 67 68 68 69 70 75 69 71 70 72 76 79 85 86 82 80 78 74 73 70 70 74 78 81 76 77 77 76 76 78 80 89 89 89 87 83 79 92 89 89 75 81
65 65 62 62 68 72 70 71 72 74 74 75 76 80 82 80 81 78 72 72 70 72 72 70 76 76 77 78 79 76 77 84 84 85 86 90 94 91 94 88 79 86 76
68 67 69 68 70 72 74 68 74 77 76 75 74 70 69 70 75 74 76 76 77 76 75 75 78 77 76 76 78 80 78 80 86 85 86 83 86 87 89 90 90 84 76
68 70 66 64 68 72 78 77 75 77 73 68 74 68 67 71 73 72 75 78 78 75 73 77 76 75 77 76 76 78 78 77 83 83 82 82 80 79 85 91 96 94 86
76 76 72 66 73 80 82 82 78 76 66 69 73 70 70 71 74 73 74 76 74 66 74 74 76 75 76 79 77 80 80 78 80 82 81 83 81 80 81 84 88 96 96
82 75 70 68 72 79 83 81 78 73 69 70 69 69 68 70 72 72 74 75 74 72 72 70 72 74 77 81 81 83 82 83 84 80 83 85 84 83 86 90 90 91 95
80 75 70 67 71 78 83 83 79 70 70 67 71 72 68 71 70 69 68 75 78 74 72 68 72 73 76 79 90 78 80 83 88 80 84 87 83 89 89 89 90 90 93
72 70 61 65 70 76 80 80 73 68 75 68 69 71 73 74 76 78 74 75 73 75 66 65 67 72 74 75 81 79 75 77 83 84 80 84 78 89 87 91 92 93 91
68 69 61 63 66 71 76 79 78 76 73 70 70 73 72 73 74 74 74 72 70 70 63 61 65 71 77 80 78 70 72 72 75 77 79 81 83 89 89 87 88 87 83
62 59 58 63 66 69 73 77 77 71 71 66 71 76 76 76 76 75 73 72 69 70 64 66 67 69 73 78 79 66 72 70 76 79 74 76 79 85 87 86 88 83 86
62 58 58 65 66 69 72 72 75 67 67 68 77 81 76 75 77 76 76 75 75 73 66 68 69 68 71 73 76 69 73 69 70 74 69 72 72 74 76 82 92 89 88
60 56 54 60 62 63 68 66 68 71 70 73 76 74 75 75 81 81 81 79 78 77 78 74 72 69 62 80 73 73 78 71 67 71 73 65 72 73 75 75 80 89 95
60 56 58 60 62 66 65 69 66 60 66 72 73 76 80 83 88 85 83 88 90 82 85 83 80 76 68 77 81 79 81 84 82 82 78 65 61 73 72 74 76 82 84
60 57 61 65 72 71 69 64 58 62 67 74 75 75 82 87 90 92 95 96 94 96 96 89 88 85 67 71 78 80 86 87 86 88 83 85 83 72 71 75 80 87 90
76 80 73 76 78 78 69 67 65 68 70 79 82 85 86 92 92 96 97 96 95 95 94 91 87 88 89 65 71 85 90 90 91 85 86 80 82 66 72 82 85 86 88
84 87 89 90 88 88 80 68 70 71 82 82 83 84 88 93 97 96 95 96 96 93 90 92 93 74 87 64 64 79 94 93 90 87 87 64 68 63 66 84 84 88 91
93 90 88 92 95 92 88 87 82 85 82 78 78 81 85 91 93 95 95 96 96 96 92 91 91 90 82 82 63 65 94 96 94 90 88 88 61 62 65 68 78 79 86
94 92 95 97 96 78 76 89 88 86 81 80 84 90 90 83 88 94 96 95 92 92 94 93 93 95 94 65 65 62 66 72 96 95 95 85 60 62 63 70 66 67 81
92 87 92 94 96 86 70 76 85 76 80 86 94 92 87 90 83 84 90 92 92 94 92 92 97 98 96 96 67 62 59 71 93 88 68 60 62 65 84 65 68 84 83
88 83 87 91 93 69 66 74 70 67 73 78 81 80 81 81 73 71 74 82 91 93 87 92 97 97 97 97 95 95 95 90 91 97 92 89 80 88 92 88 86 89 91
89 84 82 79 74 62 63 64 66 62 70 72 70 69 73 76 75 71 80 73 92 81 94 97 96 96 95 90 69 76 92 89 88 88 91 95 96 94 91 91 90 92 88
84 84 78 70 65 59 62 59 58 59 61 58 64 71 68 71 70 73 80 64 67 63 61 61 75 89 64 57 58 61 59 58 63 90 98 98 98 94 89 89 88 88 85

GFSMW_sfc_rhum_138.txt.gz
RH
63 64 67 72 73 74 73 77 78 80 81 86 88 84 90 90 80 77 78 80 79 78 80 82 79 78 83 82 80 82 83 89 81 98 93 96 96 94 97 99 99 98 97
66 69 73 76 77 77 75 77 78 81 81 84 86 86 92 84 82 79 77 77 79 80 74 84 83 82 84 80 78 83 85 84 77 88 96 98 92 93 90 93 95 93 98
73 70 69 80 82 80 78 77 78 81 82 81 80 82 80 79 76 79 79 80 78 78 79 82 86 79 78 81 79 77 80 85 76 74 88 89 90 84 88 84 91 93 91
68 67 74 83 82 83 82 79 76 78 76 81 84 89 90 93 88 87 82 80 77 77 79 82 84 76 79 79 78 73 79 82 86 79 72 76 82 89 95 88 84 80 83
69 72 76 77 82 81 83 82 79 78 80 82 84 88 88 90 87 86 83 77 73 72 72 75 75 77 79 78 79 78 80 85 90 89 89 86 83 78 92 83 93 78 86
72 72 71 71 80 78 84 85 81 80 78 80 81 84 90 89 91 88 82 84 76 76 74 74 76 77 78 79 81 81 78 83 85 86 88 90 92 89 93 92 82 78 77
73 74 75 79 78 79 84 84 82 83 82 82 82 83 87 88 89 90 85 89 79 78 78 77 78 79 80 77 77 78 78 79 84 82 85 84 86 84 88 91 89 88 76
74 75 73 74 75 78 84 85 82 82 82 82 83 81 80 84 88 76 83 87 82 79 78 76 76 77 79 82 78 80 79 79 83 80 80 82 81 80 84 90 95 94 84
79 78 76 75 79 84 86 88 85 81 79 77 77 72 75 74 78 77 78 84 82 71 84 75 79 78 81 88 84 89 90 87 84 87 87 87 85 82 82 85 88 95 96
82 78 75 78 81 83 86 87 85 83 75 73 70 70 73 77 73 74 82 82 83 80 74 70 72 77 77 86 88 89 89 96 94 94 95 93 91 89 86 87 88 87 94
79 75 75 77 80 85 87 88 85 82 71 72 74 76 80 80 79 81 85 84 78 75 70 72 79 81 80 82 88 88 88 93 93 90 94 93 89 96 90 88 89 90 92
76 73 73 79 83 84 86 88 84 82 78 76 78 81 81 79 82 81 79 80 74 71 73 70 76 78 81 85 80 79 78 82 81 79 81 84 76 88 91 90 88 90 89
77 75 73 78 79 79 82 82 83 82 82 78 77 78 79 79 81 80 77 76 71 70 71 71 76 80 85 85 77 73 81 83 80 76 79 78 83 87 89 87 89 88 78
72 69 71 73 76 76 78 80 84 82 76 70 76 81 82 80 81 78 79 79 74 73 72 73 74 81 80 77 74 67 66 70 75 76 74 72 78 85 88 82 89 80 84
68 65 66 69 73 75 74 72 78 77 69 71 79 86 83 80 81 82 82 81 80 73 72 71 72 76 77 70 82 70 66 65 66 68 62 69 69 74 73 82 90 88 85
74 72 62 66 70 71 72 72 74 75 70 76 81 80 82 82 85 83 82 81 82 81 77 78 71 80 71 81 75 77 74 69 68 67 68 63 69 71 73 77 82 82 86
70 64 61 64 68 70 71 76 77 72 73 78 79 81 84 86 87 83 82 84 86 86 90 86 82 82 79 72 74 72 79 81 86 88 78 64 59 69 65 72 77 82 77
71 63 65 67 70 73 74 70 66 72 76 79 82 83 86 90 89 90 93 95 94 97 97 94 92 85 73 73 69 70 85 89 90 91 82 89 82 71 66 65 78 88 90
72 79 69 73 77 77 71 70 72 74 76 83 86 85 87 93 94 97 97 97 95 97 98 96 91 91 88 69 73 85 94 94 93 87 86 83 83 67 71 79 86 88 90
77 80 87 82 81 81 70 72 76 77 86 85 87 85 87 93 95 97 96 98 96 97 95 95 95 76 92 64 69 90 97 97 95 90 91 63 70 64 67 84 86 91 94
85 83 82 88 90 81 79 84 84 89 86 83 82 82 83 89 93 96 97 95 94 95 96 96 95 92 83 81 64 70 97 99 94 90 93 83 63 64 67 70 80 82 90
89 84 90 92 84 73 73 87 90 87 82 80 84 89 90 83 87 94 97 96 94 96 98 96 95 96 95 67 62 62 67 75 91 96 95 80 65 68 66 73 72 74 86
92 86 88 88 76 69 66 78 88 81 82 86 92 92 91 93 87 92 95 96 93 94 93 93 98 97 96 96 73 62 69 73 91 91 73 69 70 74 90 70 74 95 89
91 88 90 90 92 80 74 75 72 70 73 77 82 84 81 80 77 76 82 90 93 93 90 94 97 97 96 95 96 94 93 85 88 92 91 92 86 93 95 95 93 90 94
90 84 86 87 91 91 82 68 70 69 71 71 74 77 72 71 74 80 83 82 96 80 86 94 93 95 95 93 77 82 91 94 89 90 92 96 98 97 94 92 92 90 90
91 89 89 88 90 86 78 70 69 67 69 71 73 77 72 62 67 73 80 67 72 69 66 65 75 91 65 60 63 61 61 64 74 90 98 99 99 97 94 94 93 91 90

GFSMW_sfc_rhum_141.txt.gz
RH
64 68 76 79 81 83 81 81 82 84 84 87 89 90 96 93 85 81 80 82 80 79 83 87 85 84 87 85 82 84 87 93 83 97 92 96 96 95 98 98 98 95 97
71 72 77 80 80 84 85 84 84 86 87 89 91 92 94 88 89 85 85 81 79 81 76 88 90 86 87 84 83 81 84 82 81 97 94 98 92 92 88 94 95 92 95
75 74 74 81 86 87 86 84 87 87 85 85 86 87 86 86 87 87 86 84 82 81 86 86 88 87 86 85 81 78 80 88 78 84 87 95 97 91 89 88 92 89 93
71 71 76 86 87 92 86 85 82 84 83 85 88 91 96 96 94 91 87 86 82 82 86 87 86 86 82 82 80 75 82 85 88 82 75 79 85 95 96 88 93 81 83
72 74 79 81 86 86 90 87 82 84 85 88 89 92 94 96 93 91 90 87 86 83 83 84 81 80 80 80 82 81 81 84 89 89 89 85 81 76 92 84 94 73 80
72 74 76 80 88 91 94 92 85 86 84 86 90 91 93 93 95 94 96 94 88 88 85 81 84 80 81 80 80 79 77 81 82 83 87 90 95 92 94 91 81 76 70
78 81 84 84 85 90 91 88 85 88 86 87 89 91 93 92 94 95 96 94 92 92 91 88 90 83 84 80 79 80 80 80 83 81 84 81 84 84 87 92 92 90 76
77 81 82 80 81 84 89 86 84 88 87 86 87 90 89 93 93 90 93 93 92 92 86 87 89 85 84 85 83 86 84 80 84 84 86 86 89 88 89 91 94 94 88
81 83 82 79 83 87 90 90 86 87 85 86 87 88 86 87 89 89 88 92 91 63 81 83 86 84 85 85 86 85 89 86 85 87 86 88 91 96 96 91 92 97 95
84 81 78 79 81 84 88 90 87 86 86 83 83 84 85 84 82 85 89 87 81 73 77 82 85 86 86 86 88 89 82 86 90 88 90 91 91 97 97 96 96 96 96
82 80 78 78 82 86 88 91 89 86 85 83 81 87 86 84 84 85 84 82 82 78 77 82 85 88 86 85 84 84 86 84 86 85 90 92 93 95 96 97 96 95 97
82 79 80 82 86 87 89 90 91 87 82 82 87 89 87 83 83 84 84 79 77 78 79 81 85 88 89 79 80 87 85 82 82 81 79 82 72 88 94 96 95 95 97
81 80 83 83 81 84 86 86 88 85 85 84 81 83 84 82 84 83 84 76 74 77 76 77 84 88 84 76 72 75 77 80 80 78 74 77 81 84 85 83 86 85 75
76 76 80 81 80 79 82 81 86 87 84 76 79 85 86 83 83 83 83 74 76 76 76 76 80 73 83 73 66 63 68 70 72 69 72 71 80 84 84 79 84 76 80
79 74 77 78 78 78 77 76 83 84 72 78 83 89 86 83 82 84 84 80 75 77 75 76 71 76 76 69 77 68 68 66 68 66 61 67 70 72 79 77 88 80 80
76 71 71 79 81 80 81 75 78 74 73 79 84 84 84 82 82 83 84 82 83 82 82 80 79 83 73 70 70 72 75 70 70 68 66 57 66 64 72 76 77 75 85
72 70 79 79 82 79 75 78 77 74 76 82 83 84 84 84 84 79 79 85 90 88 92 91 88 86 74 67 71 76 81 84 86 85 79 58 55 63 58 68 77 79 74
72 75 79 77 74 75 76 85 92 77 78 81 83 84 84 87 88 90 94 95 95 97 98 96 95 88 71 66 70 74 88 92 92 93 87 87 80 71 63 60 73 87 89
78 87 74 74 79 82 88 90 77 79 81 84 84 86 84 89 88 94 96 98 95 96 99 98 94 94 93 68 69 82 93 94 93 86 87 83 83 68 74 78 85 88 91
86 82 83 84 87 92 78 80 93 86 87 84 85 88 89 94 94 96 96 99 98 99 96 95 96 80 95 66 67 87 96 95 93 89 90 66 74 66 71 89 89 92 96
85 83 86 91 91 82 83 92 90 88 86 83 83 84 86 92 93 94 94 97 97 96 97 95 96 93 92 84 64 67 95 97 91 91 94 88 66 67 70 75 86 85 93
91 88 91 91 80 74 76 89 90 89 85 82 85 89 89 82 91 93 93 92 95 95 98 95 94 97 95 69 66 64 70 79 93 96 92 86 70 73 71 78 76 79 86
93 89 90 81 74 68 70 78 88 88 84 88 92 91 89 92 92 92 95 94 94 94 96 96 98 97 97 97 72 68 70 75 92 94 75 74 76 80 93 76 79 93 91
91 88 79 77 76 69 67 79 92 80 74 77 83 91 92 90 89 86 84 89 95 95 90 96 96 97 97 97 96 95 93 86 92 98 98 94 91 94 97 96 97 93 93
92 84 80 80 78 72 82 90 92 72 71 76 82 84 84 78 84 86 90 88 95 80 86 96 95 95 96 94 80 84 92 96 97 93 95 96 98 94 94 93 95 92 89
92 90 89 90 91 89 94 95 87 68 71 76 79 78 74 72 71 80 93 76 71 63 64 68 80 93 74 68 62 64 67 70 79 94 100 100 100 100 96 96 96 92 91

GFSMW_sfc_rhum_144.txt.gz
RH
74 68 73 84 88 88 84 82 82 87 90 93 96 94 97 94 90 85 83 81 82 83 86 88 86 86 88 87 84 86 86 91 82 95 88 93 94 92 94 94 92 90 85
74 72 78 85 85 86 86 84 86 87 90 92 95 94 95 92 91 89 89 84 84 86 79 91 90 90 90 87 88 86 88 86 84 94 91 97 88 91 89 95 88 89 82
74 74 78 85 92 92 90 87 88 87 88 89 86 88 87 86 88 89 90 87 84 87 91 91 92 93 92 91 87 83 84 87 74 84 88 91 90 85 85 88 87 87 82
71 73 76 86 92 91 89 86 82 83 82 84 87 89 93 95 95 94 92 91 86 88 89 90 91 92 90 91 82 77 82 84 88 79 75 78 82 92 93 85 85 79 74
74 77 76 78 84 88 94 92 85 84 85 87 87 89 95 97 96 95 94 91 89 88 86 88 90 92 91 86 80 80 80 82 86 86 87 82 81 80 93 83 80 76 74
75 75 75 79 88 95 95 90 85 85 86 90 91 92 95 96 97 96 97 94 91 88 86 86 91 91 92 88 84 80 78 79 78 79 83 87 94 94 95 94 91 85 70
79 80 83 87 92 93 93 92 89 92 92 93 93 93 94 94 95 96 95 94 92 90 90 90 92 93 95 91 88 86 83 84 82 82 86 83 86 84 85 89 91 92 77
79 82 84 87 90 90 93 91 89 91 89 91 94 93 92 93 93 91 94 95 92 88 87 89 89 82 84 84 85 84 79 86 89 82 83 82 87 95 92 94 96 89 83
84 86 86 86 88 88 92 92 91 91 89 90 91 89 90 89 91 91 93 85 78 65 86 87 90 90 84 88 86 83 82 88 86 88 88 84 86 95 89 96 98 99 92
87 86 84 84 84 84 87 89 86 86 87 86 86 86 88 88 89 88 88 79 77 80 85 88 90 89 86 87 88 90 78 83 86 83 87 83 85 87 90 96 96 96 98
87 86 81 79 80 80 83 87 86 87 86 88 88 88 90 89 88 85 84 85 82 81 84 87 90 92 80 81 88 85 82 84 85 80 86 88 86 88 88 93 93 93 96
83 82 82 80 85 86 88 88 90 88 88 85 85 91 84 83 87 83 80 77 78 79 82 86 90 88 75 78 84 81 79 79 80 75 78 83 70 84 86 89 92 93 95
88 86 86 84 85 86 88 88 87 86 84 84 88 87 83 84 88 82 76 73 76 78 80 82 88 84 77 74 72 73 73 74 75 73 74 78 76 82 80 81 84 83 73
84 85 86 84 83 83 84 86 88 85 84 81 81 84 84 85 86 82 74 75 77 78 81 82 69 82 76 70 65 63 66 69 70 67 70 71 73 80 79 74 77 72 75
83 81 82 82 80 82 81 81 84 84 76 78 84 88 85 85 84 83 76 74 75 78 79 81 67 73 74 64 77 65 66 65 70 64 56 64 67 70 72 72 80 74 70
77 75 78 80 82 80 81 79 81 81 76 81 85 83 82 81 84 83 79 76 81 82 84 75 86 76 63 71 72 71 71 68 70 62 57 52 62 63 70 74 72 72 81
73 74 77 76 76 76 76 82 84 78 78 88 86 83 82 82 84 80 77 84 89 87 92 92 89 78 72 71 75 75 79 82 85 85 70 56 55 56 52 65 76 78 73
76 74 71 73 75 82 83 81 80 88 96 92 84 83 83 85 84 86 92 94 95 98 98 97 96 85 70 70 74 76 86 92 92 93 88 84 80 68 55 54 68 85 89
81 84 72 77 86 84 81 84 92 95 93 89 86 85 83 86 84 92 95 96 95 96 99 98 96 92 89 68 71 80 89 92 94 92 87 86 84 70 73 74 79 87 91
92 91 95 90 87 87 87 90 95 92 93 95 87 84 85 91 90 94 94 98 97 98 95 95 97 85 96 65 70 87 89 93 90 88 89 64 74 67 73 89 90 91 95
92 92 87 94 94 92 92 94 91 93 94 85 85 84 82 87 88 93 94 96 96 96 97 96 97 94 94 81 65 73 93 95 90 92 93 89 65 67 71 76 87 84 92
95 92 94 96 93 88 86 94 96 96 91 83 87 91 88 80 84 93 93 94 95 95 97 95 95 97 96 85 67 70 78 77 90 95 94 87 71 69 72 79 75 78 88
97 93 94 90 85 81 82 89 92 93 84 86 93 94 87 88 86 88 93 93 95 92 94 93 97 98 98 98 69 68 73 78 94 96 78 76 79 84 94 74 77 96 92
95 89 87 87 85 80 76 85 95 82 79 82 85 85 86 88 87 78 77 82 89 92 90 95 96 98 98 98 96 96 94 88 94 94 98 94 97 94 96 98 93 91 94
92 83 83 81 79 73 89 91 90 82 78 75 78 83 85 88 90 88 87 78 88 79 87 95 92 97 99 96 83 86 94 96 93 94 95 95 97 95 95 96 94 91 91
92 87 82 78 79 87 95 96 94 76 70 76 80 82 85 88 87 87 94 81 75 67 66 72 79 93 79 72 79 69 71 73 77 94 99 100 100 99 97 97 95 90 90

GFSMW_sfc_rhum_147.txt.gz
RH
53 59 62 64 61 61 61 62 69 73 67 63 62 63 64 64 63 59 64 66 67 70 66 60 61 61 62 66 66 64 67 62 63 61 57 55 70 68 72 68 66 64 62
61 61 66 66 62 61 61 62 64 69 65 61 62 59 60 61 61 60 63 64 68 70 65 67 64 66 62 68 68 69 63 60 62 74 71 68 51 56 62 65 70 71 60
59 64 67 68 63 64 64 61 62 65 67 69 64 62 63 61 60 62 62 66 68 70 70 69 67 67 66 66 68 68 70 64 61 72 70 80 75 67 53 61 59 68 66
55 59 65 69 66 65 64 62 63 64 67 69 64 64 55 58 62 64 64 65 68 69 71 72 70 70 66 68 65 63 66 65 70 60 58 69 77 87 76 55 54 57 57
57 61 64 64 63 67 65 64 63 62 66 66 65 62 64 64 65 64 66 66 66 69 70 72 72 71 66 70 71 69 68 64 65 67 67 66 63 76 90 90 73 55 50
55 58 62 64 67 67 67 64 62 63 64 64 66 67 68 68 64 65 64 60 62 66 72 72 72 71 69 71 71 69 70 66 66 65 70 77 88 85 88 86 79 70 56
59 63 67 68 72 75 72 66 63 68 67 66 66 68 68 66 67 65 64 62 61 66 72 72 73 72 71 70 72 68 69 67 66 69 73 73 78 82 80 82 80 80 59
63 64 65 67 71 72 70 65 67 71 69 68 68 68 65 62 63 65 64 59 57 64 69 71 71 72 69 69 71 63 63 67 68 70 71 73 80 82 81 86 87 81 60
66 68 68 69 71 70 71 69 66 67 69 70 70 70 67 67 68 70 67 55 56 59 68 69 70 70 66 68 69 64 61 65 67 69 72 73 75 79 76 79 86 95 82
70 69 69 71 69 69 68 71 68 68 69 69 68 67 68 67 67 63 60 57 60 64 68 69 67 63 64 64 65 62 59 59 61 61 68 69 72 72 74 75 79 86 86
70 70 70 71 69 69 70 73 72 72 72 71 69 72 69 71 67 63 60 57 60 64 67 69 62 56 58 59 59 58 58 61 59 61 67 72 72 72 73 76 77 78 82
69 68 68 71 72 72 71 71 72 73 72 71 74 76 75 70 65 62 58 56 59 66 68 69 61 54 52 54 55 55 55 56 54 57 57 60 53 66 66 70 80 79 78
75 71 71 73 73 74 75 74 76 73 76 73 73 72 73 68 63 58 55 52 58 64 66 64 61 56 52 49 50 53 55 56 52 54 56 57 57 57 56 57 60 59 56
77 73 72 74 73 75 75 73 76 77 77 73 70 68 68 66 60 57 54 55 58 62 62 61 62 59 52 48 48 47 50 52 51 51 54 54 56 58 56 54 57 52 54
79 76 75 73 73 74 72 71 76 78 76 76 75 73 69 67 65 60 57 58 60 62 59 60 60 59 53 47 50 46 49 49 47 45 43 52 61 68 66 54 61 57 52
78 75 75 74 75 75 76 74 78 81 77 77 77 71 72 69 68 63 60 58 63 63 60 62 57 54 50 70 69 52 46 47 44 41 41 43 50 54 71 72 70 66 66
70 71 74 75 74 76 81 83 78 74 74 80 79 76 74 74 74 66 58 60 68 66 71 64 58 57 57 70 72 66 55 55 59 61 50 43 41 44 39 61 69 69 70
73 71 75 81 85 87 84 82 85 87 86 87 94 91 74 77 75 73 80 83 86 92 92 83 74 65 62 70 74 72 69 74 72 72 71 71 66 58 40 42 58 79 78
89 90 83 88 91 92 90 91 100 88 90 96 95 91 76 79 75 87 90 89 88 92 93 86 80 80 78 71 75 71 77 87 85 79 74 70 74 69 66 61 70 76 84
80 93 96 93 93 96 90 91 96 97 98 96 93 85 77 86 91 90 92 91 89 91 84 90 86 75 79 67 71 75 73 82 80 79 74 64 71 68 70 78 75 80 85
86 85 86 99 99 94 95 98 98 98 98 96 92 82 71 76 82 87 90 92 92 91 91 92 92 89 77 75 67 71 80 79 75 76 78 74 66 69 71 72 80 79 77
92 88 97 98 90 86 85 96 97 98 97 95 87 86 77 65 70 87 87 88 91 92 92 92 92 92 88 69 69 70 73 74 80 83 80 76 67 70 72 73 74 76 72
93 88 91 93 89 84 81 90 96 96 96 94 93 86 72 72 69 76 86 82 85 81 84 82 86 90 91 84 70 68 72 76 82 81 75 72 75 77 74 74 76 74 77
86 82 86 91 93 86 82 88 95 96 93 86 74 68 70 71 64 60 60 62 69 73 74 80 81 84 88 85 80 81 83 84 85 78 82 78 80 80 78 74 76 79 80
87 79 82 84 87 82 87 92 94 93 92 88 73 68 71 67 66 62 60 58 67 57 67 75 74 85 90 88 80 79 82 81 80 79 78 80 80 79 78 78 78 78 77
85 81 79 79 81 86 91 94 94 87 81 80 74 76 74 70 68 69 70 66 67 65 66 73 78 81 75 72 70 72 74 76 73 70 76 81 81 78 72 72 71 71 70

GFSMW_sfc_rhum_150.txt.gz
RH
28 33 39 40 41 44 45 50 55 58 52 48 46 46 48 49 46 46 53 54 56 58 53 44 46 45 49 55 55 50 51 44 48 44 39 39 53 54 52 54 54 55 52
27 35 42 44 46 46 46 47 51 55 49 43 42 42 45 45 44 45 52 53 56 58 54 54 52 54 48 57 58 58 48 44 50 52 46 41 41 44 46 48 54 61 52
27 36 43 47 47 46 47 45 47 52 49 49 49 48 49 47 45 46 47 53 56 59 59 59 57 57 54 55 59 59 62 51 48 57 52 45 42 49 38 47 45 55 49
21 30 40 46 47 46 46 44 47 50 52 55 48 50 38 37 39 44 48 51 57 59 61 62 60 60 55 60 56 55 57 57 55 48 46 56 59 54 52 41 46 48 44
19 26 38 41 42 45 48 49 49 48 52 54 50 49 45 45 43 46 54 56 58 58 59 61 62 61 56 63 63 60 59 51 52 52 52 55 49 67 71 70 54 47 41
19 24 34 40 42 44 48 50 50 48 52 54 54 53 52 48 46 49 47 47 50 54 61 60 61 61 60 62 58 60 61 58 56 52 58 61 71 69 74 73 66 64 47
24 29 35 41 45 50 53 51 47 48 53 55 54 53 51 50 53 52 47 51 52 54 62 62 63 57 60 61 57 59 61 60 57 60 56 62 68 69 67 67 64 61 48
32 35 37 43 45 52 52 50 47 48 50 52 52 50 50 47 48 50 49 49 50 53 61 61 60 59 58 58 56 50 52 60 59 64 63 58 64 66 66 74 82 74 53
36 40 40 44 46 52 56 54 46 44 48 52 54 55 53 54 55 60 55 50 53 52 58 58 60 57 56 56 53 48 50 52 56 58 59 55 62 66 65 69 76 85 82
41 43 44 49 49 54 54 57 51 48 51 55 55 54 56 57 59 59 54 52 54 54 58 57 54 54 53 50 47 45 47 46 46 48 55 54 57 57 63 71 71 75 84
35 42 46 48 54 56 55 60 55 54 57 59 58 59 58 59 57 55 53 53 54 53 54 52 49 48 47 46 46 46 46 48 49 50 53 57 57 56 55 62 66 69 76
36 38 44 51 56 57 57 59 58 57 59 57 60 62 62 60 58 58 56 55 52 54 54 49 46 43 43 43 43 42 42 42 45 46 47 50 38 50 48 45 62 58 56
36 41 47 52 58 60 59 58 58 56 57 58 65 65 66 61 61 57 54 48 50 52 53 48 47 43 43 41 42 42 44 43 44 46 47 48 47 46 42 41 42 38 34
48 47 50 55 58 61 62 62 63 58 59 63 68 71 67 63 57 54 51 49 48 48 48 48 48 47 41 38 38 39 42 41 43 48 48 48 49 48 44 39 41 36 36
53 54 54 54 60 64 64 61 64 65 67 69 68 70 66 60 58 55 50 50 49 47 49 50 50 46 40 33 39 38 41 39 39 41 40 49 59 67 63 43 46 40 36
63 56 58 58 63 66 64 62 64 69 69 71 72 71 70 63 60 54 53 51 50 49 49 48 46 46 38 64 51 44 36 36 33 33 35 37 40 62 70 67 68 62 55
72 70 61 60 60 65 65 64 71 72 74 78 75 74 69 64 62 56 51 51 54 52 54 49 47 51 54 67 59 53 43 44 47 48 36 29 29 34 31 53 57 64 65
62 74 83 79 72 70 74 79 84 94 99 99 99 87 78 83 83 85 77 72 74 94 88 77 64 56 59 70 65 61 59 65 65 66 65 65 58 52 32 33 51 72 72
70 89 89 91 91 91 95 97 100 100 100 100 99 99 96 96 91 88 86 88 85 89 90 92 79 79 80 70 65 61 69 84 78 71 71 66 70 66 58 54 65 74 79
70 67 93 95 94 96 95 99 100 100 99 99 99 99 96 96 92 85 85 91 94 91 81 89 87 74 82 70 67 74 69 78 74 75 75 65 71 67 66 71 70 77 81
75 74 73 98 100 96 98 100 100 99 100 100 99 97 94 92 83 83 86 85 87 88 84 86 85 82 78 76 66 65 83 77 69 71 75 74 66 68 68 68 78 78 73
79 77 94 98 94 88 93 99 100 100 99 99 98 96 93 87 73 82 82 83 85 84 84 85 85 83 81 68 69 69 70 66 76 79 76 76 67 68 68 71 69 66 66
78 75 85 92 89 86 84 96 98 98 98 99 97 96 91 73 64 71 81 77 81 76 78 77 82 86 83 80 67 70 71 67 77 79 76 70 70 65 72 71 68 67 74
67 70 84 91 93 83 83 90 96 96 95 94 92 90 82 62 53 55 55 59 66 69 68 72 76 79 81 79 76 77 77 70 76 75 76 74 75 74 72 70 72 76 77
74 65 78 88 91 84 88 92 95 95 96 95 92 87 72 52 51 51 52 52 65 56 63 69 69 80 84 83 75 76 78 78 76 74 76 77 76 77 77 76 74 74 73
74 73 73 82 85 87 92 93 95 90 91 86 86 85 71 54 48 51 56 63 62 58 58 60 65 75 76 77 73 71 71 72 69 68 75 78 77 74 69 70 67 65 64